[[{"header":{"parameterUnit":"m.s-1","parameterCategory":1,"la1":30.2991,"la2":30.254,"lo1":-89.0895,"lo2":-89.0444,"dy":0.0017,"dx":0.0017,"nx":28,"ny":28,"refTime":"2024-05-30T21:00:00:Z","depth":0,"parameterNumber":2,"parameterNumberName":"U-component_of_WINDS"},"data":[0,0,0,0,0,0,0,0,0,0,0,0,0,0,0,0,0,0,0,0,0,0,0,0,0,0,0,0,0,0,0,0,0,0,0,0,0,0,0,0,0,0,0,0,0,0,0,0,0,0,0,0,0,0,0,0,0,0,-4.2792,-4.2794,0,-4.2903,-4.2904,-4.2905,-4.2927,-4.2926,-4.2925,-4.2924,-4.3035,-4.3038,-4.3042,0,0,0,0,0,0,0,0,0,0,0,0,0,-4.2598,-4.2602,-4.2792,-4.2794,-4.2795,-4.2903,-4.2904,-4.2906,-4.2927,-4.2926,-4.2925,-4.2924,-4.3034,-4.3038,-4.3042,0,0,0,0,0,0,0,0,0,0,0,0,0,-4.2693,-4.2603,-4.2792,-4.2819,-4.2822,-4.2902,-4.2904,-4.2906,-4.2927,-4.2926,-4.2924,-4.2923,-4.3032,-4.3038,-4.3043,-4.3104,0,0,-4.306,-4.3063,0,0,0,0,0,0,0,0,-4.2687,-4.27,-4.2813,-4.2817,-4.2821,-4.29,-4.2876,-4.2972,-4.2927,-4.2887,-4.2924,-4.2922,-4.2991,-4.3,-4.3023,-4.3109,-4.3114,-4.3061,-4.3064,-4.3067,-4.3068,0,0,0,0,0,0,0,-4.2681,-4.2695,-4.2836,-4.2815,-4.282,-4.2825,-4.2837,-4.2895,-4.2945,-4.289,-4.2892,-4.2905,-4.2992,-4.3018,-4.3026,-4.3115,-4.3061,-4.3066,-4.3069,-4.3071,-4.3256,-4.3258,0,0,0,0,0,0,-4.267,-4.269,-4.2832,-4.2839,-4.275,-4.2829,-4.2842,-4.2876,-4.2944,-4.2953,-4.2906,-4.2906,-4.3009,-4.3019,-4.303,-4.3105,-4.3067,-4.3072,-4.3075,-4.3255,-4.3257,-4.3258,0,0,0,0,0,0,-4.2666,-4.2682,-4.2828,-4.2765,-4.2784,-4.2834,-4.2871,-4.2878,-4.2904,-4.2956,-4.2965,-4.2923,-4.3008,-4.3022,-4.3085,-4.3109,-4.3074,-4.308,-4.3253,-4.3255,-4.3258,-4.3255,0,0,0,0,0,0,-4.266,-4.2681,-4.2705,-4.2765,-4.2787,-4.2882,-4.2872,-4.2882,-4.2914,-4.2914,-4.2974,-4.2983,-4.3008,-4.3077,-4.3091,-4.3116,-4.3084,-4.3251,-4.3254,-4.3257,-4.3253,-4.3257,-4.326,0,0,0,0,0,-4.2653,-4.2699,-4.2706,-4.2723,-4.2818,-4.2883,-4.2896,-4.2925,-4.2915,-4.2939,-4.2973,-4.2981,-4.3105,-4.3083,-4.3099,-4.3126,-4.325,-4.3253,-4.3257,-4.3251,-4.3256,-4.326,0,0,0,0,0,0,-4.2638,-4.2707,-4.2715,-4.2783,-4.2827,-4.2887,-4.2918,-4.2929,-4.2976,-4.2974,-4.3008,-4.3021,-4.3083,-4.3111,-4.3086,-4.3189,-4.3177,-4.3183,-4.3167,-4.3172,-4.3175,-4.3166,-4.3089,0,0,0,0,0,-4.2643,-4.2691,-4.2749,-4.2802,-4.2824,-4.2867,-4.2897,-4.2916,-4.2962,-4.2981,-4.302,-4.3064,-4.3113,-4.3145,-4.3193,-4.3258,-4.3271,-4.3285,-4.3288,-4.3291,-4.3295,-4.3331,-4.3338,-4.327,-4.327,-4.327,0,0,-4.2653,-4.2697,-4.2725,-4.2801,-4.2837,-4.2885,-4.2883,-4.2934,-4.2969,-4.2989,-4.305,-4.3081,-4.3133,-4.3197,-4.3228,-4.3223,-4.3318,-4.3295,-4.3297,-4.33,-4.3336,-4.3342,-4.3348,-4.3272,-4.3272,-4.3271,0,0,-4.2695,-4.2734,-4.2782,-4.282,-4.2875,-4.2904,-4.2916,-4.2974,-4.2995,-4.3058,-4.3074,-4.3117,-4.32,-4.3237,-4.3266,-4.3324,-4.3332,-4.3339,-4.3356,-4.339,-4.3396,-4.34,-4.3419,-4.3426,-4.3344,-4.3344,-4.3344,0,-4.27,-4.2773,-4.2806,-4.2856,-4.2888,-4.291,-4.2959,-4.2993,-4.3061,-4.3083,-4.3077,-4.3183,-4.322,-4.3293,-4.3307,-4.3331,-4.3344,-4.333,-4.3392,-4.3398,-4.3403,-4.3421,-4.3428,-4.3344,-4.3344,-4.3344,-4.3344,0,-4.2776,-4.2827,-4.2859,-4.2925,-4.2962,-4.3011,-4.305,-4.3083,-4.31,-4.3129,-4.3193,-4.3238,-4.3295,-4.3315,-4.3331,-4.339,-4.3385,-4.3386,-4.3374,-4.3409,-4.3426,-4.3434,-4.3344,-4.3344,-4.3344,-4.3344,0,0,-4.2809,-4.2894,-4.2905,-4.2935,-4.2999,-4.3038,-4.3089,-4.3146,-4.3173,-4.322,-4.3262,-4.3333,-4.3335,-4.3368,-4.3389,-4.342,-4.3461,-4.3417,-4.3418,-4.3421,-4.3527,-4.3524,-4.3532,-4.3468,-4.3469,-4.347,-4.3522,0,-4.2857,-4.2948,-4.2979,-4.3054,-4.31,-4.3122,-4.3166,-4.321,-4.3239,-4.3282,-4.3315,-4.3364,-4.3363,-4.3383,-4.3415,-4.3449,-4.3482,-4.3446,-4.3506,-4.3507,-4.3489,-4.3542,-4.3539,-4.3585,-4.3529,-4.3531,-4.3531,0,-4.2925,-4.2973,-4.3053,-4.3111,-4.3131,-4.317,-4.3225,-4.3267,-4.3317,-4.3336,-4.3374,-4.3393,-4.3446,-4.3433,-4.3506,-4.3481,-4.3508,-4.3528,-4.3531,-4.3535,-4.3519,-4.3545,-4.3601,-4.3607,-4.3543,-4.3542,-4.3541,0,-4.2939,-4.3024,-4.3082,-4.3108,-4.3178,-4.3204,-4.3234,-4.3283,-4.3316,-4.3364,-4.3385,-4.3438,-4.3467,-4.3508,-4.354,-4.3528,-4.361,-4.36,-4.3626,-4.3625,-4.364,-4.3638,-4.3698,-4.3661,-4.3661,-4.3661,-4.3661,0,-4.2988,-4.3035,-4.309,-4.3125,-4.3179,-4.3215,-4.3266,-4.3298,-4.3342,-4.3383,-4.3406,-4.3445,-4.3487,-4.3531,-4.3557,-4.3613,-4.3626,-4.3642,-4.3648,-4.3639,-4.3636,-4.3655,-4.3651,-4.3663,-4.3662,-4.3662,-4.3662,0,-4.3011,-4.305,-4.3114,-4.3176,-4.3192,-4.3229,-4.3281,-4.3316,-4.3347,-4.3399,-4.3414,-4.3462,-4.3515,-4.3553,-4.3621,-4.3638,-4.3698,-4.3705,-4.3681,-4.3683,-4.3706,-4.3702,-4.3778,-4.3789,-4.3747,-4.3747,-4.3747,0,-4.3038,-4.3075,-4.314,-4.317,-4.3201,-4.3249,-4.3282,-4.3319,-4.3353,-4.3413,-4.3441,-4.3496,-4.3541,-4.3625,-4.3666,-4.3718,-4.3725,-4.3748,-4.3733,-4.3722,-4.3723,-4.3719,-4.3723,-4.3749,-4.3749,-4.375,-4.375,0,-4.3082,-4.31,-4.3147,-4.3201,-4.324,-4.3285,-4.3329,-4.3352,-4.3397,-4.3434,-4.3489,-4.3524,-4.3595,-4.3648,-4.3705,-4.3736,-4.375,-4.3755,-4.3763,-4.3753,-4.3736,-4.3744,-4.3684,-4.3752,-4.3752,-4.3752,-4.3752,-4.3751,-4.3107,-4.314,-4.3191,-4.3243,-4.3281,-4.3322,-4.3358,-4.3394,-4.3441,-4.3501,-4.352,-4.3577,-4.3627,-4.3704,-4.3736,-4.378,-4.3779,-4.3791,-4.3794,-4.3796,-4.3795,-4.3732,-4.3791,-4.3791,-4.3791,-4.3791,-4.3791,0,-4.315,-4.3184,-4.3232,-4.3294,-4.3334,-4.3346,-4.3396,-4.3429,-4.3479,-4.3524,-4.3569,-4.3632,-4.3685,-4.373,-4.3785,-4.3812,-4.382,-4.3825,-4.3822,-4.3828,-4.3794,-4.378,-4.3817,-4.3817,-4.3817,-4.3817,-4.3817,-4.3817,-4.3177,-4.3234,-4.3258,-4.3334,-4.3368,-4.3424,-4.3451,-4.3489,-4.3526,-4.3595,-4.3639,-4.3669,-4.3714,-4.3773,-4.3821,-4.3833,-4.3851,-4.3854,-4.3868,-4.3834,-4.3831,-4.3828,-4.3815,-4.3859,-4.3859,-4.3898,-4.3899,-4.3899]},{"header":{"parameterUnit":"m.s-1","parameterCategory":1,"la1":30.2991,"la2":30.254,"lo1":-89.0895,"lo2":-89.0444,"dy":0.0017,"dx":0.0017,"nx":28,"ny":28,"refTime":"2024-05-30T21:00:00:Z","depth":0,"parameterNumber":3,"parameterNumberName":"V-component_of_WINDS"},"data":[0,0,0,0,0,0,0,0,0,0,0,0,0,0,0,0,0,0,0,0,0,0,0,0,0,0,0,0,0,0,0,0,0,0,0,0,0,0,0,0,0,0,0,0,0,0,0,0,0,0,0,0,0,0,0,0,0,0,3.8893,3.8894,0,3.8919,3.8919,3.892,3.8912,3.8911,3.891,3.891,3.8934,3.8935,3.8936,0,0,0,0,0,0,0,0,0,0,0,0,0,3.8835,3.8837,3.8893,3.8894,3.8894,3.8919,3.8919,3.892,3.8912,3.8911,3.891,3.891,3.8934,3.8935,3.8936,0,0,0,0,0,0,0,0,0,0,0,0,0,3.8861,3.8837,3.8893,3.8893,3.8893,3.8919,3.8919,3.892,3.8912,3.8911,3.891,3.8909,3.8933,3.8935,3.8936,3.8963,0,0,3.8942,3.8942,0,0,0,0,0,0,0,0,3.8859,3.8863,3.8893,3.8893,3.8893,3.8911,3.8908,3.8934,3.8912,3.8905,3.891,3.8909,3.8927,3.8929,3.8936,3.8964,3.8965,3.8942,3.8943,3.8944,3.8944,0,0,0,0,0,0,0,3.8858,3.8862,3.8903,3.8893,3.8894,3.8891,3.8894,3.8913,3.892,3.8905,3.8905,3.8908,3.8927,3.8934,3.8936,3.8966,3.8942,3.8943,3.8944,3.8945,3.9018,3.9019,0,0,0,0,0,0,3.8856,3.886,3.8903,3.8904,3.8874,3.8893,3.8896,3.8906,3.892,3.8921,3.8909,3.8908,3.8931,3.8934,3.8937,3.8969,3.8944,3.8945,3.8946,3.9017,3.9018,3.9019,0,0,0,0,0,0,3.8855,3.886,3.8902,3.8882,3.8887,3.8895,3.8907,3.8907,3.8914,3.8922,3.8923,3.8915,3.8931,3.8934,3.8957,3.897,3.8946,3.8947,3.9016,3.9017,3.9018,3.9034,0,0,0,0,0,0,3.8853,3.8859,3.887,3.8883,3.8888,3.8922,3.8907,3.8908,3.8918,3.8916,3.8928,3.8929,3.8931,3.8954,3.8959,3.8972,3.8949,3.9015,3.9016,3.9018,3.9032,3.9036,3.9039,0,0,0,0,0,3.8851,3.8873,3.8871,3.8876,3.8902,3.8923,3.8926,3.8927,3.8919,3.8929,3.8934,3.8929,3.8968,3.8957,3.8961,3.8975,3.9014,3.9016,3.9018,3.9031,3.9035,3.9038,0,0,0,0,0,0,3.886,3.8874,3.8872,3.8899,3.891,3.8921,3.8934,3.8932,3.8945,3.8943,3.8943,3.8946,3.8969,3.8975,3.8962,3.9002,3.8989,3.8993,3.8998,3.9002,3.9005,3.9003,3.895,0,0,0,0,0,3.8866,3.8882,3.8893,3.8915,3.8921,3.8927,3.8936,3.8936,3.8947,3.8952,3.8958,3.8969,3.8983,3.8993,3.9007,3.9033,3.9035,3.9045,3.9048,3.9051,3.9053,3.9068,3.9072,3.9026,3.9026,3.9026,0,0,3.8877,3.8886,3.8896,3.8918,3.8926,3.8943,3.8931,3.8948,3.896,3.8954,3.8976,3.8981,3.8993,3.9018,3.9029,3.9023,3.9067,3.9053,3.9055,3.9056,3.907,3.9075,3.9079,3.9027,3.9027,3.9027,0,0,3.8905,3.8914,3.8934,3.8943,3.8956,3.896,3.8965,3.8977,3.8981,3.9003,3.8999,3.9013,3.9038,3.9046,3.9054,3.9086,3.9082,3.9091,3.9107,3.9121,3.9125,3.9128,3.9139,3.9143,3.9093,3.9093,3.9093,0,3.8917,3.8942,3.8944,3.8963,3.8972,3.8968,3.8988,3.8996,3.9013,3.9019,3.9013,3.9044,3.9052,3.9078,3.9087,3.9093,3.9098,3.9089,3.9124,3.9127,3.913,3.9141,3.9145,3.9094,3.9094,3.9094,3.9094,0,3.8955,3.8973,3.8987,3.9005,3.9016,3.9035,3.9039,3.905,3.905,3.9054,3.9077,3.9086,3.9101,3.9108,3.9107,3.9134,3.913,3.9124,3.9111,3.9136,3.9146,3.915,3.9096,3.9095,3.9095,3.9095,0,0,3.899,3.9009,3.9014,3.9023,3.9037,3.9051,3.9069,3.9086,3.9095,3.9107,3.9122,3.9144,3.9138,3.9147,3.9147,3.9159,3.9184,3.9151,3.9152,3.9157,3.9215,3.922,3.9225,3.9182,3.9183,3.9183,3.9214,0,3.9019,3.9053,3.9056,3.9086,3.9102,3.9099,3.9115,3.9126,3.9131,3.9145,3.9149,3.9165,3.9156,3.9161,3.9174,3.9179,3.9196,3.9177,3.9196,3.9196,3.9193,3.923,3.9235,3.9264,3.9218,3.9219,3.9219,0,3.9058,3.9073,3.9105,3.9118,3.9124,3.9139,3.9154,3.9168,3.918,3.9182,3.9192,3.9191,3.921,3.9197,3.9222,3.9209,3.9217,3.9221,3.9222,3.9224,3.9209,3.9232,3.9273,3.9277,3.9226,3.9225,3.9225,0,3.908,3.9107,3.913,3.9137,3.9153,3.9163,3.917,3.9181,3.9191,3.9204,3.921,3.9225,3.9233,3.9245,3.9247,3.9238,3.9273,3.926,3.9275,3.9275,3.9282,3.9282,3.9325,3.9288,3.9288,3.9288,3.9288,0,3.9113,3.9133,3.914,3.9154,3.9176,3.9179,3.92,3.9207,3.9217,3.9231,3.9229,3.9243,3.9246,3.926,3.9262,3.9283,3.9286,3.9288,3.9289,3.9289,3.9288,3.9294,3.9292,3.9289,3.9288,3.9288,3.9288,0,3.9141,3.9147,3.9172,3.9185,3.9189,3.9204,3.9215,3.9229,3.9233,3.9252,3.9256,3.9263,3.928,3.9284,3.9303,3.9305,3.9329,3.9328,3.9326,3.9325,3.934,3.9339,3.9388,3.9394,3.9353,3.9354,3.9354,0,3.9162,3.9177,3.9192,3.9202,3.921,3.9226,3.9236,3.924,3.925,3.9265,3.9277,3.9293,3.9306,3.9333,3.9339,3.9354,3.9353,3.9369,3.9355,3.9354,3.9353,3.9352,3.9354,3.9371,3.9372,3.9372,3.9373,0,3.9197,3.92,3.9215,3.9232,3.9244,3.9257,3.9269,3.9277,3.9282,3.9294,3.9312,3.9322,3.9342,3.9359,3.9374,3.938,3.9377,3.9377,3.9381,3.9381,3.9379,3.9381,3.9333,3.9376,3.9375,3.9375,3.9375,3.9375,3.9222,3.9236,3.9249,3.9266,3.9276,3.9288,3.9301,3.9307,3.9322,3.934,3.934,3.9359,3.9371,3.9391,3.9398,3.9412,3.9407,3.9414,3.9415,3.9417,3.9418,3.9377,3.9415,3.9415,3.9415,3.9415,3.9415,0,3.9258,3.9267,3.9282,3.93,3.9313,3.931,3.9324,3.9335,3.9352,3.9363,3.9377,3.9397,3.9413,3.9421,3.9436,3.9446,3.9445,3.945,3.9449,3.9451,3.9422,3.9416,3.9451,3.9451,3.9451,3.9451,3.9451,3.9451,3.9278,3.9301,3.9305,3.9333,3.9341,3.936,3.9368,3.9378,3.9388,3.941,3.9424,3.9429,3.9439,3.9455,3.947,3.9471,3.9477,3.9483,3.9484,3.9456,3.9453,3.9449,3.9444,3.9484,3.9484,3.9512,3.9512,3.9512]}]]